Regional Weather Roundup
Issued by NWS

Home | Current Version | Previous Version | Graphics & Text | Print | Product List | Glossary Off
Versions: 1 2 3 4 5 6 7 8 9 10 11 12 13 14 15 16 17 18 19 20 21 22 23 24 25 26 27 28 29 30 31 32 33 34 35 36 37 38 39 40 41 42 43 44 45 46 47 48 49 50

000
ASUS43 KDMX 181507
RWRIA

WEATHER ROUNDUP FOR IOWA
NATIONAL WEATHER SERVICE DES MOINES IA
1000 AM CDT THU SEP 18 2014

NOTE: "FAIR" INDICATES FEW OR NO CLOUDS BELOW 12,000 FEET WITH NO
SIGNIFICANT WEATHER AND/OR OBSTRUCTIONS TO VISIBILITY.

* - THESE STATIONS ARE NOT NWS STATIONS...THUS NOT UNDER NWS
QUALITY CONTROL.  THEY ALSO DO NOT REPORT WEATHER SUCH
AS PRECIPITATION OR FOG.

IAZ001>003-012>014-020>022-031>034-043>046-181600-
   NORTHWEST IOWA

CITY           SKY/WX    TMP DP  RH WIND       PRES   REMARKS
CARROLL *      CLOUDY    59  59 100 S8        30.07S
CHEROKEE *     SUNNY     64  61  88 S9        30.06S
DENISON *      PTSUNNY   61  59  94 SE9       30.04S
LE MARS *      SUNNY     64  59  82 SE9       30.04S
ORANGE CITY *  SUNNY     66  57  72 S8        30.05R
SHELDON *      SUNNY     64  59  82 S10       30.05R
SIOUX CITY     MOSUNNY   65  60  84 SE9       30.03S
SPENCER        SUNNY     64  58  80 SE9       30.07R
STORM LAKE *   SUNNY     59  59 100 SE8       30.07S FOG
$$

IAZ055>058-069>071-079>083-090>094-181600-
   SOUTHWEST IOWA

CITY           SKY/WX    TMP DP  RH WIND       PRES   REMARKS
ATLANTIC *     PTSUNNY   63  59  88 SE8       30.05F
AUDUBON *      PTSUNNY   59  54  82 SE6       30.08S HAZE
CLARINDA *     SUNNY     64  61  88 E5        30.05F
COUNCIL BLFS * PTSUNNY   63  63 100 SE9       30.03S
CRESTON *      PTSUNNY   59  59 100 E8        30.07F
HARLAN  *      MOSUNNY   63  59  88 SE7       30.09S
LAMONI         PTSUNNY   57  55  93 E8        30.08R
SHENANDOAH *   MOSUNNY   66  61  82 SE7       30.04F
$$

IAZ047>049-059>061-072>074-084-181600-
   CENTRAL IOWA

CITY           SKY/WX    TMP DP  RH WIND       PRES   REMARKS
AMES           SUNNY     60  58  92 SE6       30.10R FOG
ANKENY *       FOG       57  57 100 SE6       30.10S VSB 1
CHARITON *     FOG       57  57 100 E7        30.10R VSB 3/4
DES MOINES     FOG       59  58  96 E7        30.10R VSB 1/4
GRINNELL*      SUNNY     61  55  82 E8        30.11S
KNOXVILLE *    CLOUDY    57  57 100 SE5       30.09R FOG
MARSHALLTOWN   SUNNY     62  57  83 SE6       30.10S
PELLA *        SUNNY     63  57  82 E5        30.11S
PERRY *        FOG       57  57 100 S3        30.09S VSB 1/4
$$

IAZ004>006-015-016-023>025-035-036-181600-
   NORTH CENTRAL IOWA

CITY           SKY/WX    TMP DP  RH WIND       PRES   REMARKS
ALGONA *       FOG       59  59 100 S9        30.10R VSB 3/4
CLARION *        N/A     64  57  77 S8        30.10R
ESTHERVILLE    PTSUNNY   59  58  96 S12       30.07S FOG
FORT DODGE *   SUNNY     63  57  82 SE6       30.10R
MASON CITY     SUNNY     62  57  83 S8        30.12R
FOREST CITY *  SUNNY     63  59  88 SE7       30.10S
IOWA FALLS *     N/A     63  55  77 SE7       30.11S
$$

IAZ007>011-017>019-026>030-037>042-050>054-066-181600-
   NORTHEAST IOWA

CITY           SKY/WX    TMP DP  RH WIND       PRES   REMARKS
CEDAR RAPIDS   SUNNY     62  57  83 E7        30.12R
CHARLES CITY * SUNNY     63  55  77 S6        30.13R
CLINTON *      MOSUNNY   61  54  77 E3        30.16S
DECORAH *      SUNNY     59  54  82 E8        30.13S
DUBUQUE        SUNNY     56  53  90 NE6       30.15R
MONTICELLO *   SUNNY     61  55  82 CALM      30.14R
OELWEIN *      SUNNY     64  55  72 SE7       30.14R
WATERLOO       SUNNY     62  55  77 SE5       30.12R
$$

IAZ064-065-067-068-078-181600-
   EAST CENTRAL IOWA

CITY           SKY/WX    TMP DP  RH WIND       PRES   REMARKS
DAVENPORT      SUNNY     63  53  70 E3        30.14R
IOWA CITY      SUNNY     62  56  80 VRB5      30.13S
MT. PLEASANT * SUNNY     64  54  68 E8        30.12R
MUSCATINE *    SUNNY     63  55  77 NE7       30.13S
QUAD CITIES    SUNNY     64  52  64 E5        30.13R
$$

IAZ062-063-075>077-085>089-095>099-181600-
   SOUTHEAST IOWA

CITY           SKY/WX    TMP DP  RH WIND       PRES   REMARKS
BURLINGTON     HAZE      63  56  78 E6        30.11R VSB 1/4
FAIRFIELD *    SUNNY     63  55  77 E7        30.11S
FORT MADISON * SUNNY     64  57  77 E7        30.11S
KEOKUK *       SUNNY     61  55  82 SE7       30.10S
OSKALOOSA *      N/A     63  55  77 E9        30.11R
CENTERVILLE *  PTSUNNY   57  57 100 NE5       30.11S
OTTUMWA        SUNNY     61  54  77 E7        30.10R
WASHINGTON *   SUNNY     63  57  82 E7        30.12S
$$

ABBREVIATIONS USED IN REMARKS
   TC - TEMPERATURES IN CELSIUS
  WCI - WIND CHILL INDEX
   HX - HEAT INDEX
  VSB - VISIBILITY
$$



USA.gov is the U.S. government's official web portal to all federal, state and local government web resources and services.